Zurück zum Katalog

SL-12 R/B(2)

AktivGEO
NORAD 25318·ROCKET BODY·🇷🇺 Russia

Gestartet Apr 29, 1998 von Baikonur Cosmodrome

Loading…

TLE

AktuellSource: Space-Track

Epoche: Sep 14, 2026, 20:58 UTC

1 25318U 98025D   26257.87364052 -.00000009  00000-0  00000-0 0  9990
2 25318  14.0198   3.2144 0029885 138.3720 235.2342  1.00032598103670

Verfolge SL-12 R/B(2) in Echtzeit mit AllMySat

Download on the App Store